Skip Page Navigation
NASA JPL Caltech
NASA Logo - Jet Propulsion Laboratory + View the NASA Portal
+ Center for Near-Earth Object Studies
JPL Home Earth Solar System Stars & Galaxies Technology
JPL Solar System Dynamics
BODIES ORBITS EPHEMERIDES TOOLS PHYSICAL DATA DISCOVERY FAQ SITE MAP
JPL Small-Body Database Browser
Search: [ help ]  
86949 (2000 HE87)
Classification: Main-belt Asteroid          SPK-ID: 2086949
Ephemeris | Orbit Diagram | Orbital Elements | Mission Design | Physical Parameters | Discovery Circumstances | Close-Approach Data ]

[ show orbit diagram ]
Orbital Elements at Epoch 2459000.5 (2020-May-31.0) TDB
Reference: JPL 23 (heliocentric ecliptic J2000)
 Element Value Uncertainty (1-sigma)   Units 
e .06935610142576779 4.1038e-08  
a 2.318695403480691 1.0916e-08 au
q 2.157879729901423 9.6059e-08 au
i 8.12851297754135 4.4158e-06 deg
node 98.82221566296167 2.9535e-05 deg
peri 133.8388501374125 4.3029e-05 deg
M 244.6206288907727 3.3544e-05 deg
tp 2459413.823068745012
(2021-Jul-18.32306874)
0.00012154 TDB
period 1289.626588511579
3.53
9.1067e-06
2.493e-08
d
yr
n .2791505721167656 1.9712e-09 deg/d
Q 2.479511077059959 1.1673e-08 au
  Orbit Determination Parameters
   # obs. used (total)      639  
   data-arc span      7185 days (19.67 yr)  
   first obs. used      2000-04-30  
   last obs. used      2020-01-01  
   planetary ephem.      DE431  
   SB-pert. ephem.      SB431-N16  
   condition code      0  
   norm. resid. RMS      .56868  
   source      ORB  
   producer      Otto Matic  
   solution date      2020-Feb-23 20:57:42  

Additional Information
 Earth MOID = 1.15381 au 
 Jupiter MOID = 2.52822 au 
 T_jup = 3.563 
[ show covariance matrix ]

Ephemeris | Orbit Diagram | Orbital Elements | Mission Design | Physical Parameters | Discovery Circumstances | Close-Approach Data ]

Physical Parameter Table
Parameter Symbol Value Units Sigma Reference Notes
absolute magnitude H 16.0   n/a MPO412687  

86949 (2000 HE87)          Discovered 2000-Apr-30 by Spacewatch at Kitt Peak
Reference: 20040830/Numbers.arcLast Updated: 2004-09-06

[ hide close-approach data ]
Close-Approach Data   ...sorted by Date/Time (TDB)
Date/Time (TDB) Time Uncertainty
(days_HH:MM)
Body Nominal Distance (au) Minimum Distance (au) Maximum Distance (au) V-relative (km/s) V-infinity (km/s) JD (TDB) Time Uncertainty (minutes) Semi-major axis (km) Semi-minor axis (km) range-LOV angle (deg) N-sigma BP Orbit Ref. Reference Modified
2141-Aug-18 00:14 00:08 Vesta 0.031791559807413 0.0317604699845884 0.0318226491469613 1.00876258115319 1.00875887097653 2503273.509643856 8.26678150116115 1512.36361492104 43.617409148843 -6.99702499729182 12818.4165029196 T 23 CATAB v2.0f-lin.ifort 2020-Feb-23 20:57:56 2020-Feb-23 20:57
Ephemeris | Orbit Diagram | Orbital Elements | Mission Design | Physical Parameters | Discovery Circumstances | Close-Approach Data ]
ABOUT SSD CREDITS/AWARDS PRIVACY/COPYRIGHT GLOSSARY LINKS
FirstGov 2020-Oct-27 09:58 UT
(server date/time)  
NASA Home Page
Site Manager:   Ryan S. Park
Webmaster  Alan B. Chamberlin